Time,TemperatureF,DewpointF,PressureIn,WindDirection,WindDirectionDegrees,WindSpeedMPH,WindSpeedGustMPH,Humidity,HourlyPrecipIn,Conditions,Clouds,dailyrainin,SoftwareType,DateUTC
2013-05-12 00:08:00,42.9,33.0,29.79,SW,227,9.0,-999.0,68,-99.99,,,0.00,weatherlink.com 1.10,2013-05-12 04:08:00,
2013-05-12 00:23:00,41.9,32.0,29.79,WNW,290,8.0,-999.0,68,-99.99,,,0.00,weatherlink.com 1.10,2013-05-12 04:23:00,
2013-05-12 00:38:00,40.9,31.0,29.79,West,273,11.0,-999.0,69,-99.99,,,0.00,weatherlink.com 1.10,2013-05-12 04:38:00,
2013-05-12 00:53:00,40.4,31.0,29.79,WSW,241,15.0,-999.0,70,-99.99,,,0.00,weatherlink.com 1.10,2013-05-12 04:53:00,
2013-05-12 01:08:00,39.3,31.0,29.80,WSW,244,8.0,-999.0,72,-99.99,,,0.00,weatherlink.com 1.10,2013-05-12 05:08:00,
2013-05-12 01:23:00,38.4,31.0,29.80,SW,234,6.0,-999.0,74,-99.99,,,0.00,weatherlink.com 1.10,2013-05-12 05:23:00,
2013-05-12 01:38:00,38.3,30.0,29.80,WNW,286,7.0,-999.0,73,-99.99,,,0.00,weatherlink.com 1.10,2013-05-12 05:38:00,
2013-05-12 01:53:00,38.1,30.0,29.78,West,259,11.0,-999.0,73,-99.99,,,0.00,weatherlink.com 1.10,2013-05-12 05:53:00,
2013-05-12 02:08:00,38.2,30.0,29.78,WNW,298,11.0,-999.0,72,-99.99,,,0.00,weatherlink.com 1.10,2013-05-12 06:08:00,
2013-05-12 02:23:00,38.4,30.0,29.78,WSW,242,10.0,-999.0,71,-99.99,,,0.00,weatherlink.com 1.10,2013-05-12 06:23:00,
2013-05-12 02:38:00,38.7,30.0,29.77,WNW,289,15.0,-999.0,70,-99.99,,,0.00,weatherlink.com 1.10,2013-05-12 06:38:00,
2013-05-12 02:53:00,38.8,30.0,29.78,WNW,287,4.0,-999.0,70,-99.99,,,0.00,weatherlink.com 1.10,2013-05-12 06:53:00,
2013-05-12 03:08:00,39.0,30.0,29.77,WSW,250,11.0,-999.0,70,-99.99,,,0.00,weatherlink.com 1.10,2013-05-12 07:08:00,
2013-05-12 03:23:00,39.1,30.0,29.77,WSW,254,10.0,-999.0,69,-99.99,,,0.00,weatherlink.com 1.10,2013-05-12 07:23:00,
2013-05-12 03:38:00,39.2,30.0,29.77,WSW,243,10.0,-999.0,69,-99.99,,,0.00,weatherlink.com 1.10,2013-05-12 07:38:00,
2013-05-12 03:53:00,39.3,30.0,29.76,WNW,286,10.0,-999.0,69,-99.99,,,0.01,weatherlink.com 1.10,2013-05-12 07:53:00,
2013-05-12 04:08:00,39.3,30.0,29.76,SW,236,7.0,-999.0,69,-99.99,,,0.01,weatherlink.com 1.10,2013-05-12 08:08:00,
2013-05-12 04:23:00,39.3,30.0,29.76,WSW,247,9.0,-999.0,69,-99.99,,,0.01,weatherlink.com 1.10,2013-05-12 08:23:00,
2013-05-12 04:38:00,39.2,30.0,29.76,SW,229,7.0,-999.0,70,-99.99,,,0.02,weatherlink.com 1.10,2013-05-12 08:38:00,
2013-05-12 04:53:00,38.8,30.0,29.77,WSW,250,9.0,-999.0,70,-99.99,,,0.02,weatherlink.com 1.10,2013-05-12 08:53:00,
2013-05-12 05:08:00,36.8,28.0,29.78,WSW,238,15.0,-999.0,70,-99.99,,,0.03,weatherlink.com 1.10,2013-05-12 09:08:00,
2013-05-12 05:24:00,34.8,26.0,29.79,WSW,251,8.0,-999.0,71,-99.99,,,0.04,weatherlink.com 1.10,2013-05-12 09:24:00,
2013-05-12 05:39:00,33.5,25.0,29.79,WSW,241,14.0,-999.0,72,-99.99,,,0.04,weatherlink.com 1.10,2013-05-12 09:39:00,
2013-05-12 05:54:00,32.6,24.0,29.80,WSW,246,12.0,-999.0,72,-99.99,,,0.04,weatherlink.com 1.10,2013-05-12 09:54:00,
2013-05-12 06:09:00,32.0,24.0,29.80,WNW,302,8.0,-999.0,72,-99.99,,,0.04,weatherlink.com 1.10,2013-05-12 10:09:00,
2013-05-12 06:24:00,31.7,24.0,29.80,SW,223,0.0,-999.0,72,-99.99,,,0.04,weatherlink.com 1.10,2013-05-12 10:24:00,
2013-05-12 06:39:00,31.5,23.0,29.81,West,261,14.0,-999.0,72,-99.99,,,0.04,weatherlink.com 1.10,2013-05-12 10:39:00,
2013-05-12 06:54:00,31.6,24.0,29.81,West,271,12.0,-999.0,72,-99.99,,,0.04,weatherlink.com 1.10,2013-05-12 10:54:00,
2013-05-12 07:09:00,31.3,24.0,29.81,WSW,256,10.0,-999.0,73,-99.99,,,0.04,weatherlink.com 1.10,2013-05-12 11:09:00,
2013-05-12 07:24:00,31.4,24.0,29.82,WSW,239,16.0,-999.0,75,-99.99,,,0.04,weatherlink.com 1.10,2013-05-12 11:24:00,
2013-05-12 07:39:00,31.6,25.0,29.82,SW,226,11.0,-999.0,75,-99.99,,,0.04,weatherlink.com 1.10,2013-05-12 11:39:00,
2013-05-12 07:54:00,32.1,25.0,29.81,SW,230,7.0,-999.0,74,-99.99,,,0.04,weatherlink.com 1.10,2013-05-12 11:54:00,
2013-05-12 08:09:00,31.6,25.0,29.82,SW,232,7.0,-999.0,77,-99.99,,,0.04,weatherlink.com 1.10,2013-05-12 12:09:00,
2013-05-12 08:24:00,31.4,29.0,29.82,WSW,248,9.0,-999.0,92,-99.99,,,0.04,weatherlink.com 1.10,2013-05-12 12:24:00,
2013-05-12 08:39:00,31.5,29.0,29.82,West,266,13.0,-999.0,91,-99.99,,,0.04,weatherlink.com 1.10,2013-05-12 12:39:00,
2013-05-12 08:54:00,32.1,29.0,29.83,WSW,248,15.0,-999.0,88,-99.99,,,0.04,weatherlink.com 1.10,2013-05-12 12:54:00,
2013-05-12 09:09:00,32.5,29.0,29.84,West,273,12.0,-999.0,86,-99.99,,,0.04,weatherlink.com 1.10,2013-05-12 13:09:00,
2013-05-12 09:24:00,33.1,29.0,29.85,WSW,251,11.0,-999.0,86,-99.99,,,0.04,weatherlink.com 1.10,2013-05-12 13:24:00,
2013-05-12 09:39:00,33.2,29.0,29.85,WSW,250,12.0,-999.0,83,-99.99,,,0.04,weatherlink.com 1.10,2013-05-12 13:39:00,
2013-05-12 09:54:00,33.1,29.0,29.85,WNW,303,11.0,-999.0,83,-99.99,,,0.04,weatherlink.com 1.10,2013-05-12 13:54:00,
2013-05-12 10:09:00,33.7,28.0,29.85,WSW,240,15.0,-999.0,81,-99.99,,,0.04,weatherlink.com 1.10,2013-05-12 14:09:00,
2013-05-12 10:24:00,34.1,29.0,29.86,SW,234,7.0,-999.0,81,-99.99,,,0.04,weatherlink.com 1.10,2013-05-12 14:24:00,
2013-05-12 10:39:00,34.9,27.0,29.86,SW,236,16.0,-999.0,74,-99.99,,,0.04,weatherlink.com 1.10,2013-05-12 14:39:00,
2013-05-12 10:54:00,35.8,28.0,29.87,WNW,285,7.0,-999.0,72,-99.99,,,0.04,weatherlink.com 1.10,2013-05-12 14:54:00,
2013-05-12 11:09:00,35.5,27.0,29.87,West,274,9.0,-999.0,72,-99.99,,,0.04,weatherlink.com 1.10,2013-05-12 15:09:00,
2013-05-12 11:24:00,35.3,27.0,29.87,WSW,243,13.0,-999.0,72,-99.99,,,0.04,weatherlink.com 1.10,2013-05-12 15:24:00,
2013-05-12 11:39:00,37.0,27.0,29.88,WSW,250,6.0,-999.0,68,-99.99,,,0.04,weatherlink.com 1.10,2013-05-12 15:39:00,
2013-05-12 11:54:00,37.0,28.0,29.88,WSW,246,10.0,-999.0,70,-99.99,,,0.04,weatherlink.com 1.10,2013-05-12 15:54:00,
2013-05-12 12:09:00,37.7,26.0,29.89,SW,232,11.0,-999.0,62,-99.99,,,0.04,weatherlink.com 1.10,2013-05-12 16:09:00,
2013-05-12 12:24:00,39.1,27.0,29.89,WSW,251,16.0,-999.0,63,-99.99,,,0.04,weatherlink.com 1.10,2013-05-12 16:24:00,
2013-05-12 12:39:00,38.7,26.0,29.89,WNW,290,12.0,-999.0,60,-99.99,,,0.04,weatherlink.com 1.10,2013-05-12 16:39:00,
2013-05-12 12:54:00,39.9,27.0,29.90,WSW,248,11.0,-999.0,60,-99.99,,,0.04,weatherlink.com 1.10,2013-05-12 16:54:00,
2013-05-12 13:09:00,40.5,28.0,29.90,WSW,241,8.0,-999.0,61,-99.99,,,0.04,weatherlink.com 1.10,2013-05-12 17:09:00,
2013-05-12 13:24:00,39.5,27.0,29.90,WNW,292,9.0,-999.0,61,-99.99,,,0.04,weatherlink.com 1.10,2013-05-12 17:24:00,
2013-05-12 13:39:00,39.2,27.0,29.91,West,259,7.0,-999.0,61,-99.99,,,0.04,weatherlink.com 1.10,2013-05-12 17:39:00,
2013-05-12 13:54:00,41.1,26.0,29.91,West,263,15.0,-999.0,56,-99.99,,,0.04,weatherlink.com 1.10,2013-05-12 17:54:00,
2013-05-12 14:10:00,39.9,26.0,29.91,SW,219,19.0,-999.0,59,-99.99,,,0.04,weatherlink.com 1.10,2013-05-12 18:10:00,
2013-05-12 14:25:00,40.2,27.0,29.92,SW,225,5.0,-999.0,59,-99.99,,,0.04,weatherlink.com 1.10,2013-05-12 18:25:00,
2013-05-12 14:40:00,38.5,26.0,29.93,WSW,240,14.0,-999.0,60,-99.99,,,0.04,weatherlink.com 1.10,2013-05-12 18:40:00,
2013-05-12 14:55:00,37.8,26.0,29.93,SW,223,12.0,-999.0,62,-99.99,,,0.04,weatherlink.com 1.10,2013-05-12 18:55:00,
2013-05-12 15:10:00,38.8,26.0,29.93,SW,231,22.0,-999.0,60,-99.99,,,0.04,weatherlink.com 1.10,2013-05-12 19:10:00,
2013-05-12 15:25:00,39.1,26.0,29.93,West,263,20.0,-999.0,59,-99.99,,,0.04,weatherlink.com 1.10,2013-05-12 19:25:00,
2013-05-12 15:40:00,39.3,27.0,29.93,WSW,250,13.0,-999.0,61,-99.99,,,0.04,weatherlink.com 1.10,2013-05-12 19:40:00,
2013-05-12 15:55:00,39.4,26.0,29.93,SW,227,22.0,-999.0,59,-99.99,,,0.04,weatherlink.com 1.10,2013-05-12 19:55:00,
2013-05-12 16:10:00,37.9,26.0,29.93,SW,218,11.0,-999.0,63,-99.99,,,0.04,weatherlink.com 1.10,2013-05-12 20:10:00,
2013-05-12 16:25:00,38.5,27.0,29.94,SW,217,10.0,-999.0,64,-99.99,,,0.04,weatherlink.com 1.10,2013-05-12 20:25:00,
2013-05-12 16:40:00,38.2,26.0,29.94,WSW,247,18.0,-999.0,61,-99.99,,,0.04,weatherlink.com 1.10,2013-05-12 20:40:00,
2013-05-12 16:55:00,39.1,27.0,29.95,WSW,245,15.0,-999.0,62,-99.99,,,0.04,weatherlink.com 1.10,2013-05-12 20:55:00,
2013-05-12 17:10:00,38.6,27.0,29.95,WSW,252,11.0,-999.0,63,-99.99,,,0.04,weatherlink.com 1.10,2013-05-12 21:10:00,
2013-05-12 17:25:00,39.6,27.0,29.95,WSW,255,11.0,-999.0,62,-99.99,,,0.04,weatherlink.com 1.10,2013-05-12 21:25:00,
2013-05-12 17:40:00,37.9,27.0,29.96,SW,218,12.0,-999.0,64,-99.99,,,0.04,weatherlink.com 1.10,2013-05-12 21:40:00,
2013-05-12 17:55:00,38.0,27.0,29.97,WNW,302,7.0,-999.0,64,-99.99,,,0.04,weatherlink.com 1.10,2013-05-12 21:55:00,
2013-05-12 18:10:00,37.6,27.0,29.96,NW,309,2.0,-999.0,65,-99.99,,,0.04,weatherlink.com 1.10,2013-05-12 22:10:00,
2013-05-12 18:25:00,37.7,27.0,29.97,WSW,240,15.0,-999.0,66,-99.99,,,0.04,weatherlink.com 1.10,2013-05-12 22:25:00,
2013-05-12 18:40:00,36.4,27.0,29.97,West,274,12.0,-999.0,69,-99.99,,,0.04,weatherlink.com 1.10,2013-05-12 22:40:00,
2013-05-12 18:55:00,36.0,27.0,29.98,WNW,302,12.0,-999.0,71,-99.99,,,0.04,weatherlink.com 1.10,2013-05-12 22:55:00,
2013-05-12 19:10:00,35.8,27.0,29.98,West,260,14.0,-999.0,69,-99.99,,,0.04,weatherlink.com 1.10,2013-05-12 23:10:00,
2013-05-12 19:25:00,35.9,27.0,29.98,West,261,16.0,-999.0,69,-99.99,,,0.04,weatherlink.com 1.10,2013-05-12 23:25:00,
2013-05-12 19:40:00,35.3,27.0,29.99,SW,235,7.0,-999.0,72,-99.99,,,0.04,weatherlink.com 1.10,2013-05-12 23:40:00,
2013-05-12 19:55:00,35.1,27.0,30.00,WSW,257,18.0,-999.0,72,-99.99,,,0.04,weatherlink.com 1.10,2013-05-12 23:55:00,
2013-05-12 20:10:00,34.8,27.0,30.00,WSW,242,13.0,-999.0,72,-99.99,,,0.04,weatherlink.com 1.10,2013-05-13 00:10:00,
2013-05-12 20:25:00,34.4,27.0,30.01,SW,217,9.0,-999.0,73,-99.99,,,0.04,weatherlink.com 1.10,2013-05-13 00:25:00,
2013-05-12 20:40:00,33.8,26.0,30.01,West,261,10.0,-999.0,74,-99.99,,,0.04,weatherlink.com 1.10,2013-05-13 00:40:00,
2013-05-12 20:55:00,33.8,26.0,30.01,SW,231,10.0,-999.0,74,-99.99,,,0.04,weatherlink.com 1.10,2013-05-13 00:55:00,
2013-05-12 21:10:00,33.4,26.0,30.02,WSW,249,11.0,-999.0,75,-99.99,,,0.04,weatherlink.com 1.10,2013-05-13 01:10:00,
2013-05-12 21:25:00,33.0,27.0,30.02,WSW,258,11.0,-999.0,77,-99.99,,,0.04,weatherlink.com 1.10,2013-05-13 01:25:00,
2013-05-12 21:40:00,32.9,26.0,30.03,West,264,11.0,-999.0,77,-99.99,,,0.04,weatherlink.com 1.10,2013-05-13 01:40:00,
2013-05-12 21:55:00,32.6,26.0,30.04,SW,229,4.0,-999.0,78,-99.99,,,0.04,weatherlink.com 1.10,2013-05-13 01:55:00,
2013-05-12 22:10:00,32.6,26.0,30.05,West,259,15.0,-999.0,78,-99.99,,,0.04,weatherlink.com 1.10,2013-05-13 02:10:00,
2013-05-12 22:25:00,32.5,27.0,30.05,SW,226,13.0,-999.0,79,-99.99,,,0.04,weatherlink.com 1.10,2013-05-13 02:25:00,
2013-05-12 22:40:00,32.5,26.0,30.05,WSW,242,10.0,-999.0,78,-99.99,,,0.04,weatherlink.com 1.10,2013-05-13 02:40:00,
2013-05-12 22:55:00,32.5,26.0,30.05,SW,229,7.0,-999.0,77,-99.99,,,0.04,weatherlink.com 1.10,2013-05-13 02:55:00,
2013-05-12 23:10:00,32.1,26.0,30.05,West,278,12.0,-999.0,79,-99.99,,,0.04,weatherlink.com 1.10,2013-05-13 03:10:00,
2013-05-12 23:25:00,32.1,26.0,30.06,WSW,258,16.0,-999.0,78,-99.99,,,0.04,weatherlink.com 1.10,2013-05-13 03:25:00,
2013-05-12 23:40:00,32.0,26.0,30.06,West,260,13.0,-999.0,78,-99.99,,,0.04,weatherlink.com 1.10,2013-05-13 03:40:00,
2013-05-12 23:55:00,31.9,26.0,30.06,North,360,2.0,-999.0,78,-99.99,,,0.04,weatherlink.com 1.10,2013-05-13 03:55:00,